Regional Weather Roundup
Issued by NWS Cleveland, OH

Home | Current Version | Previous Version | Text Only | Print | Product List | Glossary Off
Versions: 1 2 3 4 5 6 7 8 9 10 11 12 13 14 15 16 17 18 19 20 21 22 23 24 25 26 27 28 29 30 31 32 33 34 35 36 37 38 39 40 41 42 43 44 45 46 47 48 49 50

000
ASUS41 KCLE 040310
RWRCLE
OHIO REGIONAL WEATHER ROUNDUP
NATIONAL WEATHER SERVICE CLEVELAND, OH
1100 PM EDT MON AUG 03 2015

NOTE: "FAIR" INDICATES FEW OR NO CLOUDS BELOW 12,000 FEET WITH NO
SIGNIFICANT WEATHER AND/OR OBSTRUCTIONS TO VISIBILITY.

OHZ001>008-015>018-024>027-034-035-043-044-040400-
   NORTHWEST OHIO

CITY           SKY/WX    TMP DP  RH WIND       PRES   REMARKS
DEFIANCE       CLEAR     63  56  78 CALM      29.90R
FINDLAY        CLEAR     68  52  56 NW6       29.88R
TOLEDO EXPRESS CLEAR     66  53  63 W7        29.88R
TOLEDO EXEC    CLEAR     68  51  54 W8        29.88R
LIMA           CLEAR     67  53  61 N6        29.91R
$$

OHZ009>014-019>023-028>033-038-089-040400-
   NORTHEAST OHIO

CITY           SKY/WX    TMP DP  RH WIND       PRES   REMARKS
CLE-HOPKINS    PTCLDY    71  63  75 NW3       29.86R
CLE-LAKEFRONT  CLEAR     74  61  63 NW5       29.83R
CUY CO. ARPT   PTCLDY    66  64  94 SE5       29.84S
LORAIN-ELYRIA  PTCLDY    72  55  55 NW8       29.86R
ASHTABULA      PTCLDY    64  64 100 CALM      29.85S FOG
AKRON-CANTON   PTCLDY    72  63  73 W7        29.86R
WOOSTER        CLEAR     71  62  73 NW8       29.87R
MANSFIELD      CLEAR     70  57  63 NW14      29.90R
YOUNGSTOWN     MOCLDY    68  61  78 NW5       29.85R
$$

OHZ042-051>053-060>062-070>072-077>081-040400-
  SOUTHWEST OHIO

CITY           SKY/WX    TMP DP  RH WIND       PRES   REMARKS
CINC-COVINGTON PTCLDY    69  66  90 S5        29.91R
CINC-LUNKEN    PTCLDY    67  67 100 CALM      29.90R FOG
HAMILTON       CLEAR     66  66 100 CALM      29.90R FOG
DAYTON         PTCLDY    68  65  90 W5        29.92R
WRIGHT-PAT AFB CLEAR     68  64  88 SW3       29.90R
DAYTON GENERAL   N/A     69  64  84 CALM      29.89R
WILMINGTON     PTCLDY    66  62  87 S5        29.91R
$$

OHZ036-037-039>041-045>050-054>059-063>069-073>076-082>088-040400-
  CENTRAL AND SOUTHEAST OHIO

CITY           SKY/WX    TMP DP  RH WIND       PRES   REMARKS
COLUMBUS       CLEAR     71  61  70 W7        29.88R
OSU AIRPORT    CLEAR     67  62  84 W7        29.89R
BOLTON FIELD   CLEAR     68  62  82 W3        29.90R
RICKENBACK AFB CLEAR     67  62  83 SW5       29.88R
NEWARK         CLEAR     72  65  78 SW3       29.88R
MARION         CLEAR     70  56  61 N8        29.89R
LANCASTER      MOCLDY    71  64  78 W3        29.90R
ZANESVILLE     CLEAR     74  66  76 SW7       29.88R
NEW PHILLY     CLEAR     69  67  93 CALM      29.86R
$$


USA.gov is the U.S. government's official web portal to all federal, state and local government web resources and services.